Home > Weather > Famagusta > Past weeks

Flag for Cyprus Weather for the Past 2 Weeks in Famagusta, Northern Cyprus, Cyprus

Now
54 °F

Passing clouds.


Feels Like: 50 °F
Forecast: 47 / 62 °F
Wind: 13 mph from North

Location: Larnaca Airport

Current Time: Feb 10, 2016 at 7:36:39 AM

Latest Report: Feb 10, 2016 at 7:00 AM


Visibility: N/A

Pressure: 30.12 "Hg

Humidity: 72%

Dew point: 45 °F

Location of FamagustaLocation

Historic Weather in Famagusta — Graph

°F

Famagusta Temperature Yesterday

Maximum temperature yesterday: 61 °F (at 11:00 AM)
Minimum temperature yesterday: 41 °F (at 3:00 AM)
Average temperature yesterday: 52 °F

High & Low Weather Summary for the Past Weeks

 TemperatureHumidityPressure
High70 °F (Feb 2, 1:30 PM)100% (Jan 30, 12:30 AM)30.45 "Hg (Jan 30, 12:30 AM)
Low34 °F (Jan 26, 6:00 AM)31% (Jan 28, 1:30 PM)29.77 "Hg (Feb 6, 2:00 PM)
Average53 °F70%30.20 "Hg
* Reported Jan 26 6:00 AM — Feb 10 6:00 AM, Famagusta, Weather by CustomWeather, © 2016

Note: Actual official high and low records may vary slightly from our data, if they occured in-between our weather recording intervals... More about our weather records

Advertising

Famagusta Weather History for the Previous 24 Hours

 ConditionsComfort  
Time TempWeatherWind HumidityBarometerVisibility
6:00 AM
Wed, Feb 10
52 °FPassing clouds.7 mph72%30.09 "HgN/A
5:30 AM50 °FPassing clouds.7 mph76%30.09 "HgN/A
5:00 AM50 °FPassing clouds.6 mph76%30.09 "HgN/A
4:30 AM50 °FPassing clouds.7 mph76%30.12 "HgN/A
4:00 AM50 °FPassing clouds.7 mph71%30.12 "HgN/A
3:30 AM48 °FPassing clouds.8 mph82%30.12 "HgN/A
3:00 AM48 °FPassing clouds.8 mph82%30.12 "HgN/A
2:30 AM46 °FPassing clouds.8 mph82%30.12 "HgN/A
2:00 AM48 °FPassing clouds.8 mph76%30.12 "HgN/A
1:30 AM48 °FClear.7 mph76%30.15 "Hg10 mi
1:00 AM48 °FClear.9 mph76%30.15 "Hg10 mi
12:30 AM48 °FClear.9 mph76%30.15 "Hg10 mi
11:30 PM
Tue, Feb 9
48 °FClear.7 mph76%30.18 "Hg10 mi
11:00 PM48 °FClear.7 mph76%30.18 "Hg10 mi
10:30 PM48 °FClear.7 mph82%30.18 "Hg10 mi
10:00 PM48 °FPassing clouds.6 mph76%30.18 "HgN/A
9:30 PM50 °FPassing clouds.5 mph71%30.21 "HgN/A
9:00 PM50 °FPassing clouds.6 mph71%30.21 "HgN/A
8:30 PM52 °FPassing clouds.6 mph67%30.21 "HgN/A
8:00 PM50 °FPassing clouds.6 mph76%30.21 "HgN/A
7:30 PM55 °FPassing clouds.9 mph59%30.21 "HgN/A
7:00 PM57 °FPassing clouds.9 mph55%30.21 "HgN/A
6:30 PM57 °FPassing clouds.12 mph55%30.21 "HgN/A
6:00 PM57 °FPassing clouds.10 mph55%30.21 "HgN/A
5:30 PM59 °FPassing clouds.12 mph51%30.21 "HgN/A
5:00 PM59 °FScattered clouds.12 mph51%30.18 "HgN/A
4:30 PM59 °FScattered clouds.12 mph55%30.18 "HgN/A
4:00 PM59 °FPassing clouds.10 mph55%30.18 "HgN/A
3:30 PM61 °FPassing clouds.12 mph48%30.18 "HgN/A
3:00 PM61 °FPassing clouds.10 mph48%30.21 "HgN/A
2:30 PM61 °FPassing clouds.10 mph52%30.21 "HgN/A
2:00 PM61 °FPassing clouds.9 mph52%30.21 "HgN/A
1:30 PM61 °FPassing clouds.8 mph52%30.21 "HgN/A
12:30 PM61 °FPassing clouds.7 mph48%30.24 "HgN/A
12:00 PM61 °FPassing clouds.7 mph45%30.24 "HgN/A
11:30 AM61 °FPassing clouds.6 mph45%30.27 "HgN/A
11:00 AM61 °FPassing clouds.7 mph42%30.27 "HgN/A
10:00 AM59 °FPassing clouds.8 mph51%30.27 "HgN/A
9:30 AM57 °FPassing clouds.7 mph59%30.27 "HgN/A
9:00 AM55 °FPassing clouds.6 mph67%30.30 "HgN/A
8:00 AM48 °FPassing clouds.5 mph82%30.30 "HgN/A
7:30 AM46 °FPassing clouds.6 mph82%30.27 "HgN/A
7:00 AM46 °FPassing clouds.6 mph82%30.27 "HgN/A
Weather by CustomWeather, © 2016

See weather overviewHow to use our weather pages